Hourly Weather Ryabinka

Today, 18 April, Sunday

Time Temperature Precipitation Wind Pressure Humidity
00:00 +3°C° 0 mm 2 mps 758 mmHg 84%
01:00 +3°C° 0 mm 2 mps 758 mmHg 85%
02:00 +2°C° 0 mm 2 mps 758 mmHg 86%
03:00 +2°C° 0 mm 2 mps 758 mmHg 86%
04:00 +2°C° 0 mm 2 mps 758 mmHg 85%
05:00 +3°C° 0 mm 2 mps 758 mmHg 83%
06:00 +3°C° 0 mm 2 mps 758 mmHg 82%
07:00 +5°C° 0 mm 2 mps 758 mmHg 73%
08:00 +7°C° 0 mm 3 mps 758 mmHg 64%
09:00 +9°C° 0 mm 3 mps 758 mmHg 56%
10:00 +10°C° 0 mm 4 mps 758 mmHg 53%
11:00 +11°C° 0 mm 4 mps 758 mmHg 51%
12:00 +10°C° 0 mm 5 mps 758 mmHg 49%
13:00 +10°C° 0 mm 5 mps 758 mmHg 54%
14:00 +9°C° 0 mm 6 mps 758 mmHg 60%
15:00 +8°C° 0 mm 6 mps 759 mmHg 65%
16:00 +7°C° 0 mm 6 mps 759 mmHg 63%
17:00 +6°C° 0 mm 5 mps 759 mmHg 62%
18:00 +6°C° 0 mm 5 mps 759 mmHg 60%
19:00 +5°C° 0 mm 5 mps 760 mmHg 59%
20:00 +3°C° 0 mm 5 mps 760 mmHg 57%
21:00 +2°C° 0 mm 5 mps 760 mmHg 55%
22:00 +1°C° 0 mm 5 mps 760 mmHg 57%
23:00 +1°C° 0 mm 4 mps 761 mmHg 59%

Tomorrow, 19 April, Monday

Time Temperature Precipitation Wind Pressure Humidity
00:00 0°C° 0 mm 4 mps 761 mmHg 62%
01:00 -1°C° 0 mm 4 mps 761 mmHg 65%
02:00 -1°C° 0 mm 4 mps 761 mmHg 67%
03:00 -2°C° 0 mm 4 mps 761 mmHg 70%
04:00 -2°C° 0 mm 4 mps 762 mmHg 68%
05:00 -1°C° 0 mm 5 mps 762 mmHg 66%
06:00 -1°C° 0 mm 5 mps 762 mmHg 63%
07:00 0°C° 0 mm 5 mps 762 mmHg 55%
08:00 +1°C° 0 mm 6 mps 762 mmHg 47%
09:00 +2°C° 0 mm 6 mps 763 mmHg 39%
10:00 +3°C° 0 mm 6 mps 762 mmHg 35%
11:00 +4°C° 0 mm 6 mps 762 mmHg 32%
12:00 +5°C° 0 mm 6 mps 762 mmHg 29%
13:00 +5°C° 0 mm 6 mps 762 mmHg 28%
14:00 +5°C° 0 mm 6 mps 762 mmHg 28%
15:00 +7°C° 0 mm 6 mps 762 mmHg 28%
16:00 +6°C° 0 mm 5 mps 762 mmHg 30%
17:00 +5°C° 0 mm 5 mps 762 mmHg 33%
18:00 +5°C° 0 mm 5 mps 762 mmHg 36%
19:00 +4°C° 0 mm 4 mps 763 mmHg 40%
20:00 +1°C° 0 mm 4 mps 763 mmHg 44%
21:00 0°C° 0 mm 4 mps 763 mmHg 48%
22:00 0°C° 0 mm 4 mps 763 mmHg 50%
23:00 -1°C° 0 mm 4 mps 763 mmHg 52%

Day after tomorrow, 20 April, Tuesday

Time Temperature Precipitation Wind Pressure Humidity
00:00 -2°C° 0 mm 4 mps 763 mmHg 53%
01:00 -2°C° 0 mm 4 mps 764 mmHg 54%
02:00 -2°C° 0 mm 4 mps 764 mmHg 54%
03:00 -2°C° 0 mm 4 mps 764 mmHg 55%
04:00 -2°C° 0 mm 4 mps 764 mmHg 54%
05:00 -2°C° 0 mm 4 mps 764 mmHg 53%
06:00 -1°C° 0 mm 4 mps 764 mmHg 52%
07:00 0°C° 0 mm 4 mps 764 mmHg 47%
08:00 +3°C° 0 mm 4 mps 764 mmHg 42%
09:00 +5°C° 0 mm 5 mps 764 mmHg 37%
10:00 +6°C° 0 mm 5 mps 764 mmHg 34%
11:00 +7°C° 0 mm 5 mps 764 mmHg 30%
12:00 +8°C° 0 mm 5 mps 764 mmHg 27%
13:00 +8°C° 0 mm 5 mps 763 mmHg 27%
14:00 +8°C° 0 mm 5 mps 763 mmHg 27%
15:00 +9°C° 0 mm 5 mps 763 mmHg 26%
16:00 +8°C° 0 mm 5 mps 763 mmHg 30%
17:00 +7°C° 0 mm 5 mps 762 mmHg 33%
18:00 +6°C° 0 mm 4 mps 762 mmHg 37%
19:00 +5°C° 0 mm 4 mps 762 mmHg 41%
20:00 +4°C° 0 mm 4 mps 762 mmHg 45%
21:00 +3°C° 0 mm 4 mps 762 mmHg 49%
22:00 +1°C° 0 mm 4 mps 762 mmHg 50%
23:00 +1°C° 0 mm 4 mps 761 mmHg 51%

21 April, Wednesday

Time Temperature Precipitation Wind Pressure Humidity
00:00 0°C° 0 mm 4 mps 761 mmHg 52%
01:00 0°C° 0 mm 4 mps 761 mmHg 52%
02:00 0°C° 0 mm 5 mps 761 mmHg 52%
03:00 0°C° 0 mm 5 mps 760 mmHg 52%
04:00 -1°C° 0 mm 6 mps 760 mmHg 50%
05:00 +1°C° 0 mm 6 mps 759 mmHg 49%
06:00 +1°C° 0 mm 6 mps 759 mmHg 47%
07:00 +2°C° 0 mm 7 mps 759 mmHg 44%
08:00 +3°C° 0 mm 7 mps 759 mmHg 42%
09:00 +4°C° 0 mm 7 mps 758 mmHg 39%
10:00 +5°C° 0 mm 7 mps 758 mmHg 38%
11:00 +6°C° 0 mm 7 mps 758 mmHg 36%
12:00 +8°C° 0 mm 7 mps 758 mmHg 35%
13:00 +6°C° 0.2 mm 7 mps 758 mmHg 42%
14:00 +5°C° 0.2 mm 7 mps 757 mmHg 49%
15:00 +4°C° 0.2 mm 7 mps 757 mmHg 56%
16:00 +3°C° 0.7 mm 7 mps 757 mmHg 66%
17:00 +2°C° 0.7 mm 7 mps 757 mmHg 76%
18:00 0°C° 0.7 mm 7 mps 757 mmHg 86%
19:00 0°C° 0.5 mm 7 mps 757 mmHg 89%
20:00 0°C° 0.5 mm 7 mps 757 mmHg 92%
21:00 0°C° 0.5 mm 7 mps 757 mmHg 95%
22:00 +1°C° 0 mm 6 mps 757 mmHg 93%
23:00 +1°C° 0 mm 6 mps 757 mmHg 92%

22 April, Thursday

Time Temperature Precipitation Wind Pressure Humidity
00:00 +1°C° 0 mm 6 mps 757 mmHg 91%
01:00 +1°C° 0.1 mm 5 mps 757 mmHg 92%
02:00 +1°C° 0.1 mm 5 mps 757 mmHg 92%
03:00 +1°C° 0.1 mm 5 mps 757 mmHg 93%
04:00 +3°C° 0 mm 4 mps 757 mmHg 93%
05:00 +3°C° 0 mm 4 mps 758 mmHg 93%
06:00 +3°C° 0 mm 4 mps 758 mmHg 94%
07:00 +3°C° 0 mm 4 mps 758 mmHg 92%
08:00 +4°C° 0 mm 4 mps 758 mmHg 90%
09:00 +5°C° 0 mm 5 mps 759 mmHg 89%
10:00 +5°C° 0 mm 4 mps 759 mmHg 88%
11:00 +6°C° 0 mm 4 mps 759 mmHg 87%
12:00 +6°C° 0 mm 4 mps 759 mmHg 87%
13:00 +6°C° 0 mm 4 mps 759 mmHg 88%
14:00 +7°C° 0 mm 3 mps 759 mmHg 88%
15:00 +7°C° 0 mm 3 mps 759 mmHg 89%
16:00 +7°C° 0 mm 3 mps 760 mmHg 90%
17:00 +7°C° 0 mm 3 mps 760 mmHg 90%
18:00 +5°C° 0 mm 4 mps 760 mmHg 91%
19:00 +5°C° 0 mm 3 mps 760 mmHg 92%
20:00 +5°C° 0 mm 3 mps 761 mmHg 93%
21:00 +5°C° 0 mm 3 mps 761 mmHg 94%
22:00 +5°C° 0 mm 3 mps 761 mmHg 94%
23:00 +4°C° 0 mm 3 mps 761 mmHg 95%

23 April, Friday

Time Temperature Precipitation Wind Pressure Humidity
00:00 +4°C° 0 mm 3 mps 761 mmHg 96%
01:00 +5°C° 0 mm 2 mps 761 mmHg 96%
02:00 +5°C° 0 mm 2 mps 761 mmHg 97%
03:00 +5°C° 0 mm 2 mps 761 mmHg 97%
04:00 +5°C° 0 mm 2 mps 761 mmHg 97%
05:00 +5°C° 0 mm 2 mps 761 mmHg 96%
06:00 +5°C° 0 mm 2 mps 762 mmHg 96%
07:00 +5°C° 0 mm 2 mps 762 mmHg 94%
08:00 +6°C° 0 mm 2 mps 762 mmHg 92%
09:00 +6°C° 0 mm 2 mps 762 mmHg 91%
10:00 +7°C° 0 mm 2 mps 762 mmHg 87%
11:00 +8°C° 0 mm 2 mps 762 mmHg 83%
12:00 +10°C° 0 mm 1 mps 762 mmHg 79%
13:00 +11°C° 0 mm 1 mps 762 mmHg 75%
14:00 +10°C° 0 mm 2 mps 762 mmHg 71%
15:00 +12°C° 0 mm 2 mps 762 mmHg 67%
16:00 +10°C° 0 mm 2 mps 762 mmHg 70%
17:00 +10°C° 0 mm 2 mps 762 mmHg 74%
18:00 +9°C° 0 mm 2 mps 763 mmHg 77%
19:00 +8°C° 0 mm 2 mps 763 mmHg 82%
20:00 +7°C° 0 mm 2 mps 763 mmHg 88%
21:00 +6°C° 0 mm 1 mps 763 mmHg 93%
22:00 +6°C° 0 mm 1 mps 763 mmHg 94%
23:00 +6°C° 0 mm 1 mps 763 mmHg 94%
Show more